Find OneWeb SL0639

NORAD ID: 55803 Int'l Des: 2023-029 Owner: ONEWEBN Country: UK Constellation: oneweb operational
LEOCIRCULARPOLARONEWEB_TYPE

リアルタイム位置

3D地球を読み込み中...

OneWeb SL0639について

説明を読み込み中...

次回通過

Passes for default location (London). Set your location on the main map for personalized predictions.

高度履歴

Loading altitude history...

軌道要素

1 55803U 23029H 26124.81635214 -.00000025 00000-0 -95499-4 0 9991
2 55803 87.9147 313.6261 0001994 59.8823 300.2507 13.19724799153186
Epoch: May 4, 2026 • Age: 5 hours

現在のステータス

高度 1209.2 km
速度 7.25 km/s
衛星直下点 -56.35°S, 92.56°W
打ち上げ日 Mar 9, 2023
運用期間 3.1 years
タイプ internet

技術仕様

分類 Payload
質量 148.00 kg
乾燥質量 140.00 kg
総質量 148.00 kg
長さ 1.30 m
直径 1.00 m
スパン 5.00 m
形状 Trapezoid+2 pan
製造者 ONEWUS
バスタイプ ARROW
フェーズステータス In Orbit
所有者/国 ONEWEBN/UK

Most Searched